Location: Bremen
(53.0830°N, 8.8000°E)
Time: 15:54:48
(UTC+01:00)

ISS - Pass Details

Date: 07 November 2020
Orbit: 418 x 420 km, 51.6° (Epoch: 30 November)

Event Time Altitude Azimuth Distance (km) Brightness Sun altitude
Exits shadow 05:12:43 32° 166° (SSE) 752 -2.4 -21.4°
Drops below altitude 10° 05:15:01 10° 133° (SE) 1,503 -0.3 -21.0°
Sets 05:17:12 0° 125° (SE) 2,366 0.9 -20.7°
